This is the latest recevied weather packets stored in our database for station/object DB0TGO-13. If no packets are shown the sender has not sent any weather packets the latest 10 day(s).
| Time | Temp. | Humidity | Pressure | Rain* | Wind** | Luminosity | Snow |
|---|---|---|---|---|---|---|---|
| 1777785302 | 11.67° C | 61% | 1008 hPa | - | - | - | - |
| 1777784403 | 11.67° C | 61% | 1008 hPa | - | - | - | - |
| 1777783503 | 10.56° C | 63% | 1008.1 hPa | - | - | - | - |
| 1777782603 | 10.56° C | 63% | 1008.1 hPa | - | - | - | - |
| 1777781702 | 11.11° C | 61% | 1008.1 hPa | - | - | - | - |
| 1777780802 | 11.11° C | 61% | 1008.1 hPa | - | - | - | - |
| 1777779902 | 11.11° C | 61% | 1008.2 hPa | - | - | - | - |
| 1777779002 | 11.11° C | 61% | 1008.2 hPa | - | - | - | - |
| 1777778103 | 11.67° C | 60% | 1008.3 hPa | - | - | - | - |
| 1777777203 | 11.67° C | 60% | 1008.3 hPa | - | - | - | - |
| 1777754702 | 19.44° C | 40% | 1010.6 hPa | - | - | - | - |
| 1777753802 | 19.44° C | 40% | 1010.6 hPa | - | - | - | - |
| 1777752903 | 20° C | 37% | 1010.7 hPa | - | - | - | - |
| 1777752002 | 20° C | 37% | 1010.7 hPa | - | - | - | - |
| 1777751103 | 21.67° C | 33% | 1010.7 hPa | - | - | - | - |
| 1777750202 | 21.67° C | 33% | 1010.7 hPa | - | - | - | - |
| 1777749303 | 22.78° C | 30% | 1010.6 hPa | - | - | - | - |
| 1777748402 | 22.78° C | 30% | 1010.6 hPa | - | - | - | - |
| 1777747503 | 23.89° C | 28% | 1010.6 hPa | - | - | - | - |
| 1777746602 | 23.89° C | 28% | 1010.6 hPa | - | - | - | - |
| 1777745702 | 25° C | 26% | 1010.7 hPa | - | - | - | - |
| 1777744802 | 25° C | 26% | 1010.7 hPa | - | - | - | - |
| 1777743902 | 25° C | 26% | 1010.8 hPa | - | - | - | - |
| 1777743002 | 25° C | 26% | 1010.8 hPa | - | - | - | - |
| 1777742103 | 25° C | 26% | 1011.2 hPa | - | - | - | - |
* Rain since midnight (hover to see other rain measurements)
** Current wind speed in m/s (hover to see current wind gust speed)